Needles, CA

4:07 AM PST on January 22, 2017 (GMT -0800)
Needles

Weather History for KEED - July, 2013

Change the Weather History Date:

Tuesday, July 16, 2013

  Actual Average Record
Temperature  
Mean Temperature 99 °F 97 °F  
Max Temperature 108 °F 109 °F 125 °F (1925)
Min Temperature 91 °F 85 °F 68 °F (1918)
Degree Days  
Heating Degree Days 0    
Cooling Degree Days 34    
Growing Degree Days 49 (Base 50)    
Moisture  
Dew Point 51 °F    
Average Humidity 21    
Maximum Humidity 32    
Minimum Humidity 11    
Precipitation  
Precipitation 0.00 in 0.01 in 0.30 in (1930)
Month to date precipitation 0.07  
Year to date precipitation 2.45  
Sea Level Pressure  
Sea Level Pressure 29.66 in    
Wind  
Wind Speed 9 mph (South)    
Max Wind Speed 16 mph    
Max Gust Speed 31 mph    
Visibility 10 miles    
Events      
T = Trace of Precipitation, MM = Missing Value Source: NWS Daily Summary

Daily Weather History Graph

Daily Weather History Graph

Search for Another Location

Airport or City:

Trip Planner

Search our weather history database for the weather conditions in past years. The results will help you decide how hot, cold, wet, or windy it might be!

Date:

Astronomy

Jul. 16, 2013 Rise Set
Actual Time 5:37 AM PDT 7:51 PM PDT
Civil Twilight 5:08 AM PDT 8:20 PM PDT
Nautical Twilight 4:33 AM PDT 8:55 PM PDT
Astronomical Twilight 3:54 AM PDT 9:33 PM PDT
Moon 1:43 PM PDT (7/16) 12:02 AM PDT (7/16)
Length of Visible Light 15h 11m
Length of Day
14h 14m
First Quarter, 57% of the Moon is Illuminated
Jul 16
First Quarter
Jul 22
Full
Jul 29
Last Quarter
Aug 6
New
Aug 14
First Quarter

Hourly Weather History & Observations

Time (PDT) Temp. Heat Index Dew Point Humidity Pressure Visibility Wind Dir Wind Speed Gust Speed Precip Events Conditions
12:56 AM 97.0 °F 96.1 °F 57.9 °F 27% 29.58 in 10.0 mi WSW 9.2 mph - N/A   Clear
1:56 AM 96.1 °F 95.2 °F 57.9 °F 28% 29.59 in 10.0 mi West 5.8 mph - N/A   Clear
2:56 AM 93.9 °F 93.2 °F 59.0 °F 31% 29.60 in 10.0 mi WSW 9.2 mph - N/A   Clear
3:56 AM 93.0 °F 92.3 °F 59.0 °F 32% 29.60 in 10.0 mi WSW 8.1 mph - N/A   Clear
4:56 AM 91.9 °F 90.8 °F 57.9 °F 32% 29.61 in 10.0 mi WSW 6.9 mph - N/A   Clear
5:56 AM 91.0 °F 89.7 °F 57.0 °F 32% 29.65 in 10.0 mi WSW 6.9 mph - N/A   Clear
6:56 AM 93.9 °F 92.6 °F 57.0 °F 29% 29.67 in 10.0 mi Calm Calm - N/A   Clear
7:56 AM 96.1 °F 95.2 °F 57.9 °F 28% 29.69 in 10.0 mi ESE 3.5 mph - N/A   Clear
8:56 AM 100.0 °F 97.9 °F 53.1 °F 21% 29.69 in 10.0 mi South 13.8 mph - N/A   Clear
9:56 AM 100.9 °F 99.1 °F 54.0 °F 21% 29.70 in 10.0 mi SSE 12.7 mph - N/A   Clear
10:56 AM 102.9 °F 101.4 °F 55.0 °F 20% 29.70 in 10.0 mi South 13.8 mph 18.4 mph N/A   Clear
11:56 AM 104.0 °F 102.9 °F 55.9 °F 20% 29.69 in 10.0 mi SSE 10.4 mph 19.6 mph N/A   Clear
12:56 PM 106.0 °F 104.5 °F 54.0 °F 18% 29.68 in 10.0 mi SSE 11.5 mph 20.7 mph N/A   Clear
1:56 PM 107.1 °F - 46.0 °F 13% 29.67 in 10.0 mi SSW 13.8 mph 31.1 mph N/A   Clear
2:56 PM 107.1 °F - 45.0 °F 12% 29.65 in 10.0 mi South 16.1 mph 20.7 mph N/A   Clear
3:56 PM 107.1 °F - 43.0 °F 11% 29.64 in 10.0 mi South 15.0 mph 18.4 mph N/A   Clear
4:56 PM 106.0 °F - 43.0 °F 12% 29.63 in 10.0 mi South 10.4 mph 18.4 mph N/A   Clear
5:56 PM 107.1 °F - 42.1 °F 11% 29.62 in 10.0 mi SSE 9.2 mph - N/A   Clear
6:56 PM 106.0 °F - 43.0 °F 12% 29.63 in 10.0 mi SSE 16.1 mph 21.9 mph N/A   Partly Cloudy
7:56 PM 102.9 °F - 43.0 °F 13% 29.66 in 10.0 mi SSE 12.7 mph - N/A   Scattered Clouds
8:56 PM 102.0 °F - 39.9 °F 12% 29.68 in 10.0 mi South 10.4 mph - N/A   Partly Cloudy
9:56 PM 100.9 °F - 41.0 °F 13% 29.71 in 10.0 mi SSW 10.4 mph - N/A   Clear
10:56 PM 97.0 °F - 46.9 °F 18% 29.73 in 10.0 mi SE 10.4 mph - N/A   Partly Cloudy
11:56 PM 96.1 °F 96.0 °F 60.1 °F 30% 29.74 in 10.0 mi SSE 11.5 mph - N/A   Clear